Weather History for St. Louis, MO

Change the Weather History Date:

Monday, June 3, 2013

  Actual Average Record
Temperature  
Mean Temperature 64 °F 72 °F  
Max Temperature 70 °F 82 °F 96 °F (1911)
Min Temperature 57 °F 63 °F 43 °F (1969)
Degree Days  
Heating Degree Days 1 1  
Month to date heating degree days 1 3  
Since 1 June heating degree days 1 3  
Since 1 July heating degree days 4488 4533  
Cooling Degree Days 0 8  
Month to date cooling degree days 8 22  
Year to date cooling degree days 219 196  
Since 1 June cooling degree days 8 22  
Growing Degree Days 14 (Base 50)    
Moisture  
Dew Point 50 °F    
Average Humidity 64    
Maximum Humidity 80    
Minimum Humidity 47    
Precipitation  
Precipitation 0.00 in 0.16 in 1.54 in (1904)
Month to date precipitation 0.26 0.47  
Year to date precipitation 24.40 16.84  
Snow  
Snow 0.00 in 0.00 in 0.00 in (2012)
Month to date snowfall 0.0 0.0  
Since 1 June snowfall 0.0 0.0  
Since 1 July snowfall 27.9 17.7  
Snow Depth 0.00 in    
Sea Level Pressure  
Sea Level Pressure 30.04 in    
Wind  
Wind Speed 6 mph (NE)    
Max Wind Speed 9 mph    
Max Gust Speed -    
Visibility 10 miles    
Events      
T = Trace of Precipitation, MM = Missing Value Source: NWS Daily Summary

Daily Weather History Graph

Daily Weather History Graph

Search for Another Location

Airport:

Trip Planner

Search our weather history database for the weather conditions in past years. The results will help you decide how hot, cold, wet, or windy it might be!

Date:

Astronomy

Jun. 03, 2013 Rise Set
Actual Time 5:37 AM CDT 8:22 PM CDT
Civil Twilight 5:06 AM CDT 8:53 PM CDT
Nautical Twilight 4:26 AM CDT 9:33 PM CDT
Astronomical Twilight 3:42 AM CDT 10:17 PM CDT
Moon 2:32 AM CDT (6/3) 3:55 PM CDT (6/3)
Length of Visible Light 15h 47m
Length of Day
14h 44m
Waning Crescent, 22% of the Moon is Illuminated
Jun 3
Waning Crescent
Jun 8
New
Jun 16
First Quarter
Jun 23
Full
Jun 29
Last Quarter

Hourly Weather History & Observations

Time (CDT) Temp. Dew Point Humidity Pressure Visibility Wind Dir Wind Speed Gust Speed Precip Events Conditions
12:51 AM 61.0 °F 52.0 °F 72% 30.03 in 10.0 mi NNE 4.6 mph - N/A   Overcast
1:51 AM 60.1 °F 51.1 °F 72% 30.03 in 10.0 mi North 5.8 mph - N/A   Overcast
2:51 AM 59.0 °F 51.1 °F 75% 30.03 in 10.0 mi North 6.9 mph - N/A   Overcast
3:51 AM 59.0 °F 51.1 °F 75% 30.02 in 10.0 mi NNW 3.5 mph - N/A   Overcast
4:51 AM 57.9 °F 51.1 °F 78% 30.03 in 10.0 mi North 4.6 mph - N/A   Mostly Cloudy
5:51 AM 59.0 °F 51.1 °F 75% 30.05 in 10.0 mi NNW 6.9 mph - N/A   Overcast
6:51 AM 59.0 °F 52.0 °F 78% 30.09 in 10.0 mi NW 4.6 mph - N/A   Overcast
7:51 AM 60.1 °F 50.0 °F 69% 30.10 in 10.0 mi NNW 6.9 mph - N/A   Mostly Cloudy
8:51 AM 62.1 °F 45.0 °F 53% 30.10 in 10.0 mi North 4.6 mph - N/A   Mostly Cloudy
9:51 AM 66.0 °F 46.0 °F 48% 30.08 in 10.0 mi WNW 6.9 mph - N/A   Scattered Clouds
10:51 AM 64.0 °F 45.0 °F 50% 30.08 in 10.0 mi NNE 3.5 mph - N/A   Scattered Clouds
11:51 AM 64.9 °F 46.0 °F 50% 30.08 in 10.0 mi Variable 4.6 mph - N/A   Mostly Cloudy
12:51 PM 66.9 °F 48.0 °F 51% 30.05 in 10.0 mi SE 4.6 mph - N/A   Scattered Clouds
1:51 PM 68.0 °F 50.0 °F 52% 30.04 in 10.0 mi ENE 9.2 mph - N/A   Partly Cloudy
2:51 PM 69.1 °F 48.9 °F 49% 30.02 in 10.0 mi East 6.9 mph - N/A   Partly Cloudy
3:51 PM 69.1 °F 48.9 °F 49% 30.02 in 10.0 mi Calm Calm - N/A   Partly Cloudy
4:51 PM 70.0 °F 48.9 °F 47% 30.01 in 10.0 mi ENE 6.9 mph - N/A   Partly Cloudy
5:51 PM 70.0 °F 50.0 °F 49% 30.00 in 10.0 mi East 8.1 mph - N/A   Scattered Clouds
6:51 PM 69.1 °F 50.0 °F 51% 29.99 in 10.0 mi East 8.1 mph - N/A   Scattered Clouds
7:51 PM 66.0 °F 50.0 °F 56% 30.00 in 10.0 mi ENE 8.1 mph - N/A   Partly Cloudy
8:51 PM 63.0 °F 50.0 °F 63% 30.01 in 10.0 mi East 8.1 mph - N/A   Partly Cloudy
9:51 PM 62.1 °F 51.1 °F 67% 30.04 in 10.0 mi East 6.9 mph - N/A   Partly Cloudy
10:51 PM 61.0 °F 51.1 °F 70% 30.04 in 10.0 mi ESE 5.8 mph - N/A   Clear
11:51 PM 59.0 °F 51.1 °F 75% 30.05 in 10.0 mi East 5.8 mph - N/A   Clear